Location: Innsbruck
(47.2657°N, 11.3914°E)
Time: 21:22:40
(UTC+01:00)

BEESAT 2 - Pass Details

Date: 05 December 2021
Orbit: 498 x 513 km, 64.9° (Epoch: 24 January)

Event Time Altitude Azimuth Distance (km) Brightness Sun altitude
Exits shadow 05:01:16 21° 33° (NNE) 1,198 ? -26.9°
Maximum altitude 05:01:28 21° 37° (NE) 1,195 ? -26.8°
Drops below altitude 10° 05:04:30 10° 89° (E) 1,743 ? -26.3°
Sets 05:07:04 0° 105° (ESE) 2,624 ? -25.9°
